Wind_Speed
9 8 8 8 7 7 8 8 9 8 7 6 5 5 4 4 3 2 2 1 1 2 2 2 2 2 3 4 5 5 6 7 7 8 8 9 9 10 10 10 10 10 11
7 7 7 8 7 6 6 7 8 8 7 7 6 5 4 3 3 3 2 3 2 2 3 3 3 3 4 5 5 6 6 7 8 8 8 9 10 11 11 11 11 11 11
5 5 5 6 5 5 5 5 6 6 6 6 5 4 4 3 2 2 3 3 3 3 3 3 4 5 5 5 6 6 6 7 8 8 8 9 10 11 11 11 11 11 11
4 4 4 4 4 4 3 4 5 5 5 5 4 5 4 3 2 2 2 2 3 4 4 4 5 5 5 6 7 7 7 8 9 9 9 9 10 9 10 10 11 11 12
4 4 4 3 3 3 3 4 4 5 5 5 4 5 4 4 3 2 2 2 3 4 4 4 5 6 6 6 7 8 8 9 9 10 10 10 10 10 10 10 11 12 13
4 4 4 4 3 3 3 4 4 5 5 5 5 5 4 4 4 3 3 3 4 5 5 5 6 6 7 7 8 8 8 9 9 10 10 10 10 11 11 11 11 12 14
5 4 4 5 4 3 3 3 4 5 4 4 5 5 5 5 5 5 5 5 5 6 6 7 7 8 8 8 9 9 9 10 11 11 11 11 12 12 12 13 13 14 15
6 5 5 5 4 4 4 4 4 4 5 4 5 5 5 5 6 6 6 6 7 7 8 8 9 9 9 9 10 10 10 11 12 12 13 13 13 13 14 14 15 15 16
8 7 6 6 6 5 5 5 5 5 5 5 5 6 6 6 7 7 7 8 8 9 9 10 10 10 11 11 11 11 12 12 13 13 13 14 14 15 15 16 16 17 18
10 9 8 7 7 7 7 7 7 6 6 6 7 7 7 8 8 8 9 9 10 10 11 11 12 12 13 13 12 12 12 13 13 14 14 15 16 16 16 17 18 18 19
10 11 10 9 8 9 9 9 8 8 8 7 8 8 9 9 9 10 10 11 11 12 12 13 14 14 14 13 14 14 14 14 14 15 16 16 17 17 18 19 19 20 20
12 11 11 10 10 11 10 10 10 10 9 9 9 10 11 11 11 11 12 12 12 13 14 15 15 14 14 15 15 16 16 16 16 17 17 17 18 18 19 20 20 21 20
12 12 12 12 12 12 12 12 11 11 10 10 10 10 11 11 12 12 13 13 14 14 14 15 16 16 16 16 17 17 17 17 17 18 18 18 19 20 21 21 22 22 22
13 14 13 14 14 13 13 13 13 13 13 12 12 12 12 12 13 14 15 15 15 16 16 17 17 17 18 18 18 18 18 18 19 19 19 20 20 21 21 22 22 23 23
14 15 15 15 14 14 14 14 14 15 16 15 15 14 14 14 15 16 16 17 17 18 18 18 18 18 19 19 19 20 20 20 20 20 20 21 21 22 23 24 24 24 25
16 16 17 17 17 16 17 17 17 18 18 18 18 18 17 17 17 17 18 18 19 20 20 19 19 20 21 21 22 22 22 21 21 22 22 23 23 24 24 25 25 25 25
17 18 19 20 19 18 18 19 19 19 19 19 19 18 18 18 18 18 19 20 21 21 21 21 21 21 21 22 22 23 23 23 24 24 24 25 25 25 26 25 25 25 25
21 20 20 19 19 20 20 20 20 20 21 21 21 20 20 20 20 20 21 22 22 23 22 23 22 22 22 22 23 24 25 25 25 26 26 26 26 26 26 25 25 25 25
23 22 21 21 21 21 21 21 21 22 22 23 23 22 22 22 22 22 23 24 25 25 25 26 25 25 24 25 25 26 26 26 27 27 27 27 27 28 27 26 26 26 27
24 24 23 24 23 23 23 23 23 24 25 25 25 25 24 24 25 26 26 26 27 27 27 27 27 26 26 27 28 28 28 28 28 29 29 29 29 29 28 28 27 27 28
25 25 25 25 24 24 24 25 26 26 26 26 26 27 26 27 27 27 26 27 28 29 28 28 28 28 28 29 29 29 30 30 30 30 31 31 31 31 31 30 30 29 29
26 27 27 27 26 26 26 27 27 27 27 27 27 28 28 28 28 29 29 29 30 30 29 29 29 29 29 30 30 31 31 31 31 32 32 33 32 32 32 32 31 31 32
28 28 28 28 28 28 28 28 28 28 27 28 28 29 29 29 30 30 30 30 30 31 31 31 31 31 31 31 31 32 32 32 32 32 33 33 33 32 32 33 33 33 32
28 29 30 29 29 29 29 29 30 29 29 29 29 30 30 30 31 31 31 31 31 32 31 31 31 31 31 32 32 32 33 32 32 32 32 32 33 32 33 33 33 33 33
28 29 30 30 30 29 29 29 30 30 30 30 30 31 31 31 31 31 31 32 32 32 31 31 31 31 32 33 33 32 32 32 32 33 33 33 33 33 32 32 32 32 32
30 30 30 30 30 30 30 31 32 32 32 32 32 32 31 31 32 32 33 33 33 33 33 32 32 32 32 33 33 34 34 33 33 33 33 33 33 33 33 33 33 33 32
Wind_Direction
55 52 52 53 59 63 60 52 54 54 54 52 48 54 51 47 49 49 48 31 27 18 352 352 331 314 298 295 297 283 276 278 283 282 282 280 279 272 267 269 269 268 266
50 49 49 50 52 54 47 50 54 52 52 49 47 44 40 31 28 16 14 13 0 350 341 338 324 317 317 307 300 294 284 279 282 281 280 282 278 274 272 273 269 270 270
37 39 37 35 34 34 34 43 47 45 45 43 40 37 30 23 22 7 5 7 1 346 332 319 315 313 313 311 304 297 293 290 289 286 288 289 286 280 278 274 271 270 268
1 13 23 21 22 16 24 26 33 32 35 36 33 26 29 24 15 14 17 9 352 341 335 319 309 306 306 304 300 295 293 292 289 289 289 289 287 285 283 280 277 274 273
323 329 331 339 356 357 3 10 6 14 20 24 20 15 15 11 11 3 353 337 330 328 326 321 315 313 313 309 303 297 292 292 291 291 289 288 289 287 286 283 282 280 279
307 304 308 325 329 339 351 350 343 347 359 359 359 357 349 340 343 332 318 316 311 309 310 313 313 315 314 312 312 305 299 299 296 293 291 291 291 288 285 283 284 283 281
303 300 309 321 314 314 312 315 322 330 338 341 343 345 341 335 329 323 308 307 307 305 304 306 305 307 309 310 307 303 299 296 294 292 290 289 289 288 287 285 286 286 284
294 292 293 296 292 289 290 301 310 313 316 320 325 330 331 332 329 325 317 307 303 302 303 306 306 304 302 302 301 300 298 295 293 292 291 289 289 288 287 287 288 288 287
284 284 283 290 281 277 284 298 307 311 312 311 310 312 314 317 317 314 312 307 300 297 298 302 305 305 304 302 300 300 297 294 293 294 294 294 294 292 290 289 289 288 286
280 283 283 286 277 273 280 292 300 304 305 302 301 302 302 303 307 307 306 304 301 298 296 297 300 302 301 301 301 300 299 295 292 292 292 292 293 292 293 293 293 291 289
283 282 283 283 277 271 276 283 288 293 295 291 291 292 293 295 301 305 306 307 305 301 298 295 295 295 299 301 301 301 299 297 296 294 293 292 291 291 294 295 296 295 292
278 279 281 280 275 273 273 276 281 285 287 286 287 284 289 291 294 298 301 305 306 303 302 298 295 296 298 301 300 300 298 297 295 295 295 294 293 293 294 296 296 296 294
274 276 280 279 277 274 276 275 277 282 282 281 280 283 289 292 292 294 299 301 302 302 302 301 301 297 296 297 298 300 298 296 296 295 295 295 295 295 296 296 297 297 295
269 274 281 280 278 276 276 281 278 276 276 277 281 283 286 287 291 295 297 299 298 299 301 302 302 297 294 295 297 299 299 298 298 297 297 296 295 295 295 295 295 296 295
275 279 280 281 283 282 278 280 284 280 276 275 278 279 282 285 287 291 294 296 297 297 298 301 302 299 296 295 296 297 296 296 298 299 299 299 298 297 295 294 294 294 293
279 281 280 280 282 283 280 277 281 282 279 277 279 281 283 289 287 288 292 295 296 296 295 297 298 297 295 294 294 295 295 294 295 297 297 297 297 296 296 295 294 294 292
277 278 279 280 278 277 280 280 280 282 284 285 285 284 285 289 288 288 291 293 295 295 295 295 296 296 294 295 295 295 294 293 293 294 295 295 295 296 297 296 295 294 292
273 274 277 277 276 277 278 282 281 282 284 284 284 285 285 286 285 285 288 290 292 292 293 294 295 294 294 294 294 294 294 293 293 293 293 294 293 294 294 296 296 294 292
271 272 273 273 275 277 278 281 283 282 283 282 283 284 283 283 284 285 286 288 290 290 291 293 294 294 294 295 295 294 293 292 293 292 292 292 292 293 293 294 294 293 293
271 270 273 275 276 278 279 279 282 281 281 280 281 284 285 283 283 285 284 287 288 288 289 290 291 292 294 295 295 294 292 291 291 291 290 290 290 290 290 291 292 291 291
270 271 274 275 276 277 279 280 283 283 281 280 281 283 286 286 285 285 287 288 288 287 288 289 290 292 293 294 294 294 292 290 290 291 290 289 289 289 289 291 291 291 290
270 271 273 274 275 277 280 282 285 285 283 281 282 284 285 286 286 286 288 290 290 289 288 288 289 291 292 294 294 294 293 291 291 291 290 289 288 287 290 290 290 289 289
267 269 272 273 274 276 279 282 284 283 283 284 285 286 287 286 285 286 287 289 290 289 288 288 290 290 290 290 291 293 293 292 291 290 290 289 289 288 289 289 288 288 289
265 269 272 273 275 276 277 279 282 282 283 285 286 287 286 286 285 285 286 288 290 289 289 289 289 289 289 289 289 291 293 293 293 294 292 291 290 289 289 288 288 288 289
266 270 272 274 277 278 279 280 282 282 282 284 285 286 287 286 285 285 286 287 287 288 288 288 289 290 289 288 288 290 293 293 293 294 294 292 291 289 289 289 289 288 289
265 269 273 276 278 278 279 280 280 280 280 282 283 284 284 285 285 284 284 285 286 287 287 287 288 289 290 290 289 291 292 293 293 293 293 293 293 290 290 290 289 289 289
Height
5894 5893 5891 5890 5890 5889 5888 5888 5887 5886 5885 5884 5884 5884 5884 5883 5883 5882 5882 5881 5881 5881 5880 5880 5880 5880 5879 5879 5879 5879 5879 5879 5879 5879 5879 5879 5878 5878 5877 5877 5877 5878 5878
5895 5894 5893 5892 5891 5890 5889 5889 5888 5887 5886 5886 5885 5885 5884 5884 5883 5883 5882 5882 5881 5880 5880 5880 5880 5879 5879 5878 5878 5878 5878 5877 5877 5877 5877 5877 5877 5876 5875 5875 5875 5875 5875
5896 5895 5894 5893 5892 5891 5890 5889 5889 5888 5888 5887 5886 5885 5885 5884 5884 5883 5882 5882 5881 5880 5880 5879 5879 5879 5878 5877 5877 5876 5876 5876 5876 5875 5875 5875 5874 5874 5874 5873 5873 5872 5872
5896 5895 5894 5893 5892 5891 5891 5890 5889 5889 5888 5887 5886 5886 5885 5885 5884 5883 5883 5882 5882 5881 5880 5879 5878 5878 5877 5876 5875 5875 5874 5874 5874 5873 5873 5873 5872 5872 5871 5871 5870 5869 5869
5896 5895 5894 5893 5892 5892 5891 5890 5889 5888 5888 5887 5887 5886 5885 5885 5884 5883 5882 5882 5881 5880 5879 5878 5878 5877 5876 5875 5874 5873 5873 5873 5872 5871 5871 5870 5870 5869 5869 5868 5868 5867 5866
5895 5894 5893 5892 5892 5891 5891 5890 5889 5888 5888 5887 5886 5886 5885 5884 5884 5883 5882 5881 5880 5880 5878 5877 5876 5875 5874 5873 5872 5872 5871 5871 5870 5869 5869 5868 5868 5867 5866 5866 5865 5864 5863
5894 5893 5893 5892 5892 5891 5891 5890 5889 5888 5888 5887 5886 5885 5884 5883 5883 5882 5881 5880 5879 5879 5877 5876 5875 5874 5873 5872 5871 5870 5869 5868 5868 5867 5866 5865 5865 5864 5863 5863 5862 5861 5860
5893 5892 5892 5891 5891 5891 5890 5889 5888 5887 5887 5886 5885 5884 5883 5882 5882 5881 5880 5879 5878 5877 5876 5875 5874 5873 5871 5870 5869 5868 5867 5866 5865 5864 5863 5862 5862 5861 5860 5859 5858 5857 5856
5891 5891 5890 5890 5890 5889 5889 5888 5887 5887 5886 5885 5884 5883 5882 5881 5880 5879 5878 5877 5876 5875 5874 5873 5872 5870 5869 5868 5866 5865 5864 5863 5862 5861 5861 5860 5858 5857 5856 5855 5854 5854 5852
5890 5889 5889 5888 5888 5888 5887 5887 5886 5885 5884 5884 5883 5881 5880 5879 5878 5877 5876 5875 5874 5873 5872 5871 5869 5868 5866 5865 5864 5862 5861 5860 5859 5858 5857 5856 5855 5854 5852 5851 5850 5849 5848
5888 5887 5887 5886 5886 5886 5885 5885 5884 5883 5882 5881 5880 5879 5878 5877 5876 5875 5874 5872 5871 5870 5869 5868 5866 5865 5863 5862 5861 5859 5858 5857 5855 5854 5853 5852 5851 5849 5848 5847 5846 5844 5843
5885 5884 5884 5883 5883 5883 5883 5882 5881 5880 5879 5878 5877 5876 5875 5874 5873 5872 5871 5870 5868 5867 5865 5864 5863 5861 5860 5858 5857 5855 5854 5853 5851 5850 5849 5847 5846 5845 5843 5842 5840 5839 5837
5881 5881 5881 5880 5880 5880 5880 5879 5878 5877 5876 5875 5874 5872 5872 5871 5870 5869 5868 5867 5865 5863 5862 5860 5859 5857 5856 5854 5853 5851 5849 5848 5847 5845 5844 5843 5841 5840 5838 5837 5835 5833 5832
5878 5878 5878 5877 5877 5876 5876 5875 5875 5874 5873 5872 5870 5869 5869 5868 5867 5866 5865 5863 5861 5860 5858 5856 5854 5853 5851 5850 5848 5847 5845 5844 5842 5840 5839 5837 5836 5834 5833 5831 5829 5827 5826
5874 5874 5874 5873 5873 5873 5872 5872 5871 5870 5869 5868 5867 5865 5865 5864 5863 5862 5861 5859 5857 5856 5854 5852 5850 5848 5847 5845 5844 5842 5840 5839 5837 5835 5834 5832 5830 5828 5827 5825 5823 5821 5819
5870 5869 5869 5869 5869 5868 5868 5867 5867 5866 5865 5864 5863 5862 5861 5860 5859 5857 5856 5855 5853 5851 5850 5848 5846 5844 5842 5840 5839 5837 5835 5833 5832 5830 5828 5826 5825 5823 5821 5819 5817 5815 5813
5865 5864 5864 5864 5864 5864 5863 5862 5861 5861 5860 5859 5858 5857 5856 5855 5854 5852 5851 5850 5848 5846 5844 5842 5840 5838 5836 5834 5833 5831 5829 5827 5826 5824 5822 5820 5818 5816 5814 5812 5810 5808 5806
5859 5858 5858 5858 5858 5858 5858 5857 5856 5855 5855 5854 5853 5852 5851 5850 5848 5847 5846 5844 5842 5840 5838 5836 5834 5832 5830 5828 5826 5825 5823 5821 5819 5817 5815 5813 5811 5809 5807 5805 5803 5801 5799
5852 5852 5852 5852 5852 5852 5851 5851 5850 5849 5848 5848 5847 5846 5844 5843 5842 5840 5839 5838 5836 5834 5832 5830 5828 5826 5823 5822 5820 5818 5816 5814 5812 5810 5808 5806 5804 5802 5799 5798 5796 5794 5792
5845 5845 5845 5844 5844 5844 5844 5844 5843 5843 5842 5841 5840 5839 5838 5836 5835 5833 5832 5831 5829 5827 5825 5823 5821 5819 5817 5815 5812 5810 5808 5806 5804 5802 5800 5798 5796 5794 5791 5790 5788 5786 5784
5838 5838 5838 5837 5837 5837 5837 5836 5836 5835 5834 5833 5832 5832 5830 5829 5827 5825 5823 5821 5820 5819 5817 5815 5813 5811 5809 5807 5804 5802 5800 5798 5796 5794 5792 5789 5787 5785 5783 5781 5779 5778 5775
5831 5831 5830 5830 5829 5829 5829 5828 5827 5826 5826 5825 5824 5824 5822 5821 5819 5817 5815 5813 5811 5810 5809 5807 5805 5803 5801 5799 5796 5794 5791 5789 5787 5785 5782 5780 5778 5776 5774 5772 5771 5769 5767
5823 5823 5822 5822 5822 5821 5821 5820 5819 5818 5817 5817 5816 5815 5814 5812 5811 5809 5807 5806 5804 5802 5801 5799 5797 5795 5793 5790 5788 5785 5783 5780 5778 5776 5773 5771 5768 5767 5765 5763 5761 5759 5757
5815 5815 5814 5814 5814 5813 5813 5812 5811 5809 5809 5808 5807 5806 5805 5803 5802 5800 5799 5798 5796 5794 5792 5790 5788 5786 5784 5782 5779 5776 5774 5772 5769 5767 5764 5761 5759 5757 5755 5754 5752 5750 5748
5806 5806 5806 5805 5805 5804 5804 5803 5802 5800 5800 5799 5798 5797 5796 5794 5793 5791 5790 5789 5787 5785 5784 5782 5780 5777 5775 5773 5770 5767 5765 5763 5760 5758 5755 5753 5750 5748 5746 5744 5742 5740 5738
5797 5797 5797 5796 5796 5795 5794 5793 5792 5791 5790 5789 5788 5787 5786 5785 5784 5782 5781 5779 5778 5776 5774 5772 5770 5768 5766 5763 5761 5758 5756 5754 5751 5749 5746 5743 5741 5739 5737 5735 5733 5731 5729